Lid_Strength_Index
5 5 4 4 4 5 5 5 4 5 5 5 5 5 5 5 5 5 7 5 6 8 7 6 6 8 9 10 12 9 9 8 9 12 13 13 14 13 13 12 12 14 15 16 15 17 19 8 8 12 10 8 7 7
5 5 5 5 5 6 5 5 4 4 5 5 5 5 5 5 4 4 7 5 4 6 7 5 5 5 5 7 9 9 8 8 8 11 11 12 13 12 13 16 10 14 13 14 13 14 9 7 8 7 6 7 7 7
5 5 5 5 6 5 5 4 4 5 6 6 5 5 5 4 4 4 6 6 6 7 7 7 6 4 2 4 5 9 6 5 7 6 9 11 13 10 14 13 12 10 8 12 12 10 8 7 6 6 6 6 6 5
6 6 6 6 6 6 5 5 5 5 5 4 5 5 4 4 4 4 6 5 6 6 10 8 3 5 3 4 4 4 4 4 5 6 9 10 12 8 12 11 11 10 10 11 11 9 8 7 7 6 6 5 5 6
6 6 6 6 6 6 5 5 3 4 4 4 4 4 4 4 4 4 5 4 4 7 10 8 5 4 4 3 5 3 4 5 6 8 9 11 9 9 9 9 11 9 10 12 13 9 9 8 6 5 6 6 5 6
7 6 6 5 5 5 4 3 3 4 4 4 4 4 4 4 4 6 7 3 3 3 7 10 6 6 4 4 5 4 4 5 6 8 9 8 6 9 12 13 8 7 6 7 9 6 6 6 5 5 5 5 5 6
7 7 6 5 5 4 3 3 4 4 4 4 5 4 4 4 5 8 7 4 3 4 7 10 9 4 4 4 4 5 4 5 6 7 8 8 8 8 10 13 9 7 6 6 5 6 7 6 7 5 6 6 6 6
7 7 6 5 4 4 3 3 4 4 4 4 4 4 4 4 4 6 4 4 4 5 5 10 10 7 3 7 8 5 7 6 7 8 7 9 8 8 12 9 8 7 6 6 6 5 5 6 6 7 7 7 8 9
7 7 6 5 4 4 3 4 4 4 4 4 4 4 5 5 7 4 1 1 3 5 8 8 10 11 5 7 6 6 6 10 6 9 9 8 10 12 9 8 8 8 8 8 6 6 6 8 8 8 9 9 10 10
7 7 6 5 4 3 4 4 4 5 5 4 5 6 7 4 1 1 3 5 6 6 6 9 8 10 8 9 8 8 8 10 12 10 7 10 11 7 7 8 8 8 7 6 8 9 9 9 9 10 10 9 9 9
6 6 6 4 4 3 4 4 5 5 5 5 6 6 4 1 3 5 7 8 8 10 8 8 7 10 6 10 9 7 10 10 13 11 11 12 12 9 8 8 7 7 7 8 8 8 8 9 10 10 10 10 9 9
6 6 5 4 3 4 4 5 5 6 5 6 7 5 4 5 7 9 9 8 9 10 7 8 8 6 6 5 9 8 10 10 14 9 12 14 10 8 8 8 8 7 8 9 8 9 9 9 9 10 10 10 10 9
6 5 4 4 3 4 4 5 5 5 5 4 6 8 9 9 11 11 12 10 10 8 7 7 9 7 6 6 8 9 11 12 8 12 13 11 8 7 7 7 7 7 7 8 8 8 8 9 9 9 10 9 10 10
5 5 4 3 4 4 4 4 5 5 6 8 9 13 11 11 10 9 8 8 6 6 7 7 8 8 7 8 8 11 9 9 13 14 13 10 8 8 7 7 7 8 8 8 8 8 9 9 9 9 10 10 11 11
5 4 3 3 4 4 4 5 5 5 7 9 8 12 10 8 7 6 5 6 5 5 6 7 7 7 9 9 9 9 11 13 12 14 10 8 6 7 7 7 7 7 7 8 9 9 10 10 10 10 10 11 10 10
4 3 4 4 4 4 4 5 6 6 7 8 9 10 8 8 7 6 6 7 4 5 5 6 8 10 10 10 10 11 12 14 12 10 7 6 6 5 6 5 6 7 8 9 9 9 9 10 10 10 10 10 10 10
4 5 3 3 4 4 5 6 6 9 9 9 10 7 8 7 7 6 5 6 4 6 8 8 10 11 8 11 11 9 12 10 8 7 6 5 6 5 5 6 7 7 7 8 8 9 9 9 9 9 10 9 9 9
5 4 3 4 4 5 6 6 8 9 11 9 10 8 7 6 6 5 5 5 6 6 6 9 7 10 11 12 12 9 8 7 6 6 5 5 5 4 4 6 6 6 7 8 8 8 8 9 9 9 9 9 9 9
4 4 4 4 4 6 8 8 7 11 9 8 7 6 6 6 5 4 5 5 5 4 5 7 9 10 10 8 8 7 7 7 7 6 5 4 4 4 5 5 5 6 7 7 8 8 8 8 8 8 8 9 9 9
4 4 4 4 5 7 9 8 5 8 10 8 7 7 6 6 5 5 5 5 6 6 7 8 8 7 7 6 5 6 5 5 5 6 6 5 4 4 4 5 5 4 6 7 7 8 7 8 7 7 8 8 8 8
5 5 5 5 7 7 8 8 8 8 8 8 6 6 6 5 6 6 7 5 7 7 8 6 6 5 4 4 4 4 4 4 5 5 5 6 4 4 4 4 4 5 6 6 7 7 7 7 6 6 7 7 6 6
5 5 6 6 8 8 8 7 8 5 7 7 7 7 7 8 7 6 5 7 7 6 5 5 5 4 4 4 4 3 3 3 4 4 6 5 5 5 5 5 5 5 5 6 6 6 5 5 5 5 6 6 6 6
5 5 6 7 10 9 10 6 8 8 10 9 7 8 8 7 6 4 8 7 6 4 4 4 3 3 4 3 3 3 3 3 4 4 4 4 4 4 4 4 4 5 6 6 5 5 5 6 6 5 5 5 6 7
5 7 9 10 9 11 7 8 7 9 9 9 9 10 8 8 6 8 9 7 5 4 4 4 4 4 4 4 5 4 4 3 3 3 3 3 4 4 3 3 4 4 5 5 5 4 4 4 5 5 5 5 6 6
10 11 9 11 8 10 10 10 10 10 11 10 9 9 8 7 10 9 9 7 6 6 5 4 4 4 5 5 4 4 3 3 4 4 3 3 3 4 4 4 4 3 2 3 4 4 4 4 4 4 4 4 5 5
12 9 10 9 9 10 10 10 10 9 9 9 8 6 7 9 10 10 8 6 6 5 5 5 5 5 5 4 5 4 4 2 3 4 3 3 3 3 4 4 4 3 2 2 3 4 4 4 4 3 4 5 7 4
12 10 8 7 8 8 8 7 7 8 9 9 8 8 9 12 11 9 5 4 5 4 3 3 3 4 4 4 3 2 2 2 2 3 2 2 1 1 2 3 3 2 1 2 2 2 3 3 3 3 3 4 3 4
9 8 11 8 8 7 9 8 8 9 8 6 7 10 11 11 10 6 5 4 4 4 3 3 2 2 3 3 2 2 2 2 2 1 1 1 1 1 1 1 1 8 1 1 1 2 2 2 3 3 3 3 3 3
10 8 8 9 8 7 7 8 8 6 5 6 8 9 8 6 4 4 4 4 3 4 3 4 3 2 2 2 2 2 2 2 3 5 5 5 4 3 2 2 2 1 2 3 8 3 1 2 2 2 2 2 2 2
10 7 8 8 8 9 6 5 6 5 4 4 4 5 5 5 4 3 4 4 4 5 3 4 3 3 4 4 4 3 2 2 2 3 4 4 3 2 2 2 1 1 1 2 2 4 8 4 5 2 3 3 3 3
5 5 6 6 7 6 5 4 4 4 4 5 4 6 6 5 4 3 3 3 4 4 4 4 3 3 3 3 3 4 4 2 1 1 1 1 1 1 1 1 1 1 1 1 2 2 3 2 3 2 2 3 3 4
6 7 7 9 8 5 5 5 6 6 5 6 6 5 5 6 7 4 2 3 4 5 6 5 4 4 2 2 2 2 5 3 5 3 1 1 1 1 1 1 0 1 1 2 2 2 2 2 3 3 3 3 3 3
6 6 6 7 8 8 7 7 7 7 7 7 7 6 6 6 8 5 3 3 4 4 4 4 3 3 2 2 2 2 4 3 8 11 11 10 8 5 1 1 1 1 1 2 2 2 2 2 3 3 3 3 3 5